| time (UTC) | temp C | wind direction | speed KPH | gust KPH | rain 1hr cm | rain 24hr cm | rain mn cm | humidity % | barometer mb |
| 20260504081532 | 10 | 207 | 0.0 | 1.6 | 0.00 | 0.00 | 0.00 | 39 | 1011.9 |
| 20260504044532 | 17 | 244 | 4.8 | 8.0 | 0.00 | 0.00 | 0.00 | 27 | 1012.2 |
| 20260504043032 | 17 | 267 | 3.2 | 6.4 | 0.00 | 0.00 | 0.00 | 25 | 1012.2 |
| 20260504041532 | 18 | 255 | 6.4 | 12.9 | 0.00 | 0.00 | 0.00 | 24 | 1012.4 |
| 20260504040032 | 18 | 318 | 4.8 | 9.7 | 0.00 | 0.00 | 0.00 | 22 | 1012.2 |
| 20260504034532 | 17 | 232 | 4.8 | 11.3 | 0.00 | 0.00 | 0.00 | 22 | 1012.5 |
| 20260504033032 | 16 | 233 | 3.2 | 6.4 | 0.00 | 0.00 | 0.00 | 30 | 1012.8 |
| 20260504031532 | 16 | 41 | 1.6 | 4.8 | 0.00 | 0.00 | 0.00 | 29 | 1013.0 |
| 20260504030032 | 16 | 247 | 0.0 | 3.2 | 0.00 | 0.00 | 0.00 | 28 | 1012.7 |
| 20260504024532 | 16 | 136 | 0.0 | 1.6 | 0.00 | 0.00 | 0.00 | 28 | 1012.7 |
| 20260504023032 | 16 | 149 | 0.0 | 1.6 | 0.00 | 0.00 | 0.00 | 29 | 1012.7 |
| 20260504021532 | 16 | 0 | 0.0 | 0.0 | 0.00 | 0.00 | 0.00 | 29 | 1012.7 |
| 20260504020032 | 17 | 113 | 0.0 | 0.0 | 0.00 | 0.00 | 0.00 | 28 | 1012.7 |
| 20260504014532 | 17 | 47 | 1.6 | 3.2 | 0.00 | 0.00 | 0.00 | 27 | 1012.7 |
| 20260504013032 | 18 | 41 | 3.2 | 6.4 | 0.00 | 0.00 | 0.00 | 25 | 1012.6 |
| 20260504011532 | 18 | 51 | 1.6 | 3.2 | 0.00 | 0.00 | 0.00 | 24 | 1012.6 |
| 20260504010032 | 18 | 29 | 3.2 | 8.0 | 0.00 | 0.00 | 0.00 | 24 | 1012.8 |
| 20260504004532 | 18 | 305 | 6.4 | 12.9 | 0.00 | 0.00 | 0.00 | 24 | 1013.1 |
| 20260504003032 | 19 | 329 | 6.4 | 9.7 | 0.00 | 0.00 | 0.00 | 23 | 1013.0 |
| 20260504001532 | 19 | 352 | 4.8 | 6.4 | 0.00 | 0.00 | 0.00 | 22 | 1012.4 |
| 20260504000032 | 19 | 309 | 8.0 | 14.5 | 0.00 | 0.00 | 0.00 | 23 | 1012.4 |
| 20260503234532 | 20 | 332 | 8.0 | 12.9 | 0.00 | 0.00 | 0.00 | 23 | 1012.4 |
| 20260503233032 | 20 | 324 | 8.0 | 16.1 | 0.00 | 0.00 | 0.00 | 20 | 1012.5 |
| 20260503231532 | 21 | 326 | 9.7 | 14.5 | 0.00 | 0.00 | 0.00 | 20 | 1012.4 |
| 20260503230032 | 21 | 300 | 6.4 | 9.7 | 0.00 | 0.00 | 0.00 | 18 | 1012.2 |
| 20260503224532 | 21 | 341 | 9.7 | 17.7 | 0.00 | 0.00 | 0.00 | 18 | 1012.2 |
| 20260503223032 | 21 | 32 | 3.2 | 8.0 | 0.00 | 0.00 | 0.00 | 18 | 1012.4 |
| 20260503221532 | 21 | 332 | 8.0 | 17.7 | 0.00 | 0.00 | 0.00 | 18 | 1012.5 |
| 20260503220032 | 21 | 6 | 6.4 | 11.3 | 0.00 | 0.00 | 0.00 | 17 | 1012.6 |